IRIDIUM 106 1 41917U 17003A 26103.76891413 .00000065 00000+0 16266-4 0 9999 2 41917 86.3926 115.4950 0002674 92.9083 267.2419 14.34217634483970 IRIDIUM 103 1 41918U 17003B 26103.75622844 .00000090 00000+0 25055-4 0 9993 2 41918 86.3926 115.4003 0002106 97.7616 262.3819 14.34217690483999 IRIDIUM 109 1 41919U 17003C 26103.76257258 .00000038 00000+0 63463-5 0 9996 2 41919 86.3928 115.4561 0002253 92.7360 267.4094 14.34217635483962 IRIDIUM 102 1 41920U 17003D 26103.73085916 -.00000012 00000+0 -11408-4 0 9990 2 41920 86.3929 115.3941 0002211 89.8655 270.2794 14.34217170484047 IRIDIUM 105 1 41921U 17003E 26103.69220557 .00000076 00000+0 20054-4 0 9993 2 41921 86.3924 83.8379 0002228 88.9956 271.1495 14.34397950485896 IRIDIUM 104 1 41922U 17003F 26103.74354289 .00000077 00000+0 20441-4 0 9991 2 41922 86.3924 115.4305 0001994 92.9027 267.2397 14.34218142484038 IRIDIUM 114 1 41923U 17003G 26103.74988700 .00000032 00000+0 44601-5 0 9999 2 41923 86.3930 115.4113 0002026 94.9340 265.2087 14.34217616484017 IRIDIUM 108 1 41924U 17003H 26103.49910158 .00000107 00000+0 31173-4 0 9996 2 41924 86.3919 83.8102 0002286 84.7667 275.3790 14.34218556485836 IRIDIUM 112 1 41925U 17003J 26103.52789630 .00000007 00000+0 -46111-5 0 9999 2 41925 86.3926 115.3491 0002019 91.5124 268.6303 14.34217478484000 IRIDIUM 111 1 41926U 17003K 26103.58497975 .00000005 00000+0 -54139-5 0 9991 2 41926 86.3927 115.3944 0002145 93.4366 266.7075 14.34217454483990 IRIDIUM 113 1 42803U 17039A 26103.91378631 .00000003 00000+0 -61137-5 0 9993 2 42803 86.4005 349.0477 0001794 85.0675 275.0726 14.34217741461978 IRIDIUM 123 1 42804U 17039B 26103.46688643 -.00000004 00000+0 -84744-5 0 9992 2 42804 86.4014 20.6783 0002159 89.2305 270.9139 14.34217578460679 IRIDIUM 120 1 42805U 17039C 26103.90744466 .00000119 00000+0 35305-4 0 9991 2 42805 86.4001 348.8417 0002317 84.0386 276.1074 14.34218114461969 IRIDIUM 115 1 42806U 17039D 26103.91822193 .00000227 00000+0 61503-4 0 9996 2 42806 86.4537 348.9572 0002435 90.7969 269.3511 14.43279562464999 IRIDIUM 118 1 42807U 17039E 26103.70790759 .00000174 00000+0 55109-4 0 9992 2 42807 86.4017 20.5760 0002154 85.3222 274.8220 14.34217872460704 IRIDIUM 117 1 42808U 17039F 26103.72693275 .00000163 00000+0 51299-4 0 9994 2 42808 86.4017 20.5262 0002237 88.9414 271.2039 14.34218426460734 IRIDIUM 126 1 42809U 17039G 26103.68253175 -.00000144 00000+0 -58589-4 0 9991 2 42809 86.4019 20.5953 0001956 86.7613 273.3806 14.34216464460700 IRIDIUM 124 1 42810U 17039H 26103.85213987 .00000270 00000+0 74235-4 0 9993 2 42810 86.4472 317.2799 0002244 89.2357 270.9101 14.43292222465839 IRIDIUM 128 1 42811U 17039J 26103.81280998 .00000111 00000+0 32416-4 0 9995 2 42811 86.3972 52.0513 0002457 84.8476 275.3000 14.34218206460754 IRIDIUM 121 1 42812U 17039K 26103.70157523 .00000177 00000+0 56215-4 0 9996 2 42812 86.4018 20.6143 0002298 83.7324 276.4133 14.34214558460586 IRIDIUM 133 1 42955U 17061A 26103.77475309 .00000034 00000+0 50398-5 0 9990 2 42955 86.3972 52.1833 0002259 87.1871 272.9583 14.34218077445549 IRIDIUM 100 1 42956U 17061B 26103.28003167 .00000101 00000+0 28942-4 0 9990 2 42956 86.3969 52.3102 0002296 87.5135 272.6324 14.34218254445474 IRIDIUM 122 1 42957U 17061C 26103.38785543 .00000150 00000+0 46402-4 0 9992 2 42957 86.3969 52.2650 0002214 87.8960 272.2489 14.34218783445498 IRIDIUM 129 1 42958U 17061D 26103.55276506 .00000178 00000+0 56541-4 0 9991 2 42958 86.3970 52.2626 0001984 81.9562 278.1859 14.34217710445530 IRIDIUM 119 1 42959U 17061E 26103.80012381 .00000180 00000+0 57198-4 0 9991 2 42959 86.3970 52.1547 0002127 87.9427 272.2013 14.34217736445588 IRIDIUM 107 1 42960U 17061F 26103.81916411 .00000172 00000+0 54299-4 0 9991 2 42960 86.3972 52.1677 0002350 92.5774 267.5691 14.34219068445591 IRIDIUM 132 1 42961U 17061G 26103.82549321 .00000084 00000+0 22974-4 0 9992 2 42961 86.3971 52.1449 0002275 87.6221 272.5236 14.34216481445593 IRIDIUM 136 1 42962U 17061H 26103.85720775 .00000176 00000+0 55758-4 0 9998 2 42962 86.3973 52.1379 0002251 89.2287 270.9167 14.34216943445613 IRIDIUM 139 1 42963U 17061J 26103.58447661 .00000151 00000+0 46797-4 0 9995 2 42963 86.3973 52.3129 0002379 87.4659 272.6809 14.34217093445588 IRIDIUM 125 1 42964U 17061K 26103.85086417 -.00000002 00000+0 -79283-5 0 9998 2 42964 86.3973 52.2618 0001918 100.1922 259.9491 14.34217663445639 IRIDIUM 135 1 43070U 17083A 26103.96452826 .00000129 00000+0 39059-4 0 9998 2 43070 86.4005 348.8679 0002189 85.1111 275.0335 14.34217637434948 IRIDIUM 138 1 43071U 17083B 26103.92012846 .00000086 00000+0 23635-4 0 9994 2 43071 86.4021 348.5724 0001782 88.5280 271.6120 14.34218418434927 IRIDIUM 116 1 43072U 17083C 26103.95818576 .00000086 00000+0 23644-4 0 9992 2 43072 86.4004 348.8572 0002452 84.1398 276.0077 14.34217432434969 IRIDIUM 130 1 43073U 17083D 26103.64739724 .00000111 00000+0 32418-4 0 9994 2 43073 86.4012 349.2558 0002373 89.0245 271.1223 14.34218698434868 IRIDIUM 151 1 43074U 17083E 26103.97087056 .00000121 00000+0 36146-4 0 9998 2 43074 86.4011 348.9083 0002239 83.9316 276.2135 14.34217557434939 IRIDIUM 134 1 43075U 17083F 26103.59031500 .00000015 00000+0 -15420-5 0 9996 2 43075 86.4005 349.0740 0002137 87.6905 272.4536 14.34217665434840 IRIDIUM 137 1 43076U 17083G 26103.95184623 .00000169 00000+0 53315-4 0 9995 2 43076 86.4011 349.0149 0002458 74.8875 285.2592 14.34217846434969 IRIDIUM 141 1 43077U 17083H 26103.94549923 -.00000009 00000+0 -10111-4 0 9995 2 43077 86.3999 348.8514 0001966 84.3473 275.7947 14.34217725434964 IRIDIUM 153 1 43078U 17083J 26103.82790935 .00000010 00000+0 -34354-5 0 9991 2 43078 86.3948 317.3989 0001853 92.2114 267.9294 14.34217878436050 IRIDIUM 131 1 43079U 17083K 26103.93281422 .00000036 00000+0 56854-5 0 9996 2 43079 86.4010 349.0387 0002112 83.9847 276.1590 14.34217942434898 IRIDIUM 144 1 43249U 18030A 26102.99703011 .00000106 00000+0 30676-4 0 9997 2 43249 86.3949 317.6773 0002272 87.2427 272.9029 14.34218308420797 IRIDIUM 149 1 43250U 18030B 26103.84059436 .00000105 00000+0 30521-4 0 9997 2 43250 86.3949 317.2924 0002026 87.2378 272.9050 14.34218370420934 IRIDIUM 157 1 43251U 18030C 26103.58054903 .00000183 00000+0 58130-4 0 9995 2 43251 86.3951 317.4529 0002146 88.1063 272.0378 14.34218146420873 IRIDIUM 140 1 43252U 18030D 26103.87865076 .00000046 00000+0 94146-5 0 9995 2 43252 86.3951 317.3409 0002179 89.2764 270.8681 14.34217842420972 IRIDIUM 145 1 43253U 18030E 26103.86596820 .00000178 00000+0 56605-4 0 9996 2 43253 86.3951 317.3186 0002468 86.4063 273.7416 14.34218076420908 IRIDIUM 146 1 43254U 18030F 26103.56786366 .00000138 00000+0 42182-4 0 9991 2 43254 86.3951 317.4557 0002242 86.8672 273.2780 14.34218615420876 IRIDIUM 148 1 43255U 18030G 26103.88498805 .00000177 00000+0 56291-4 0 9994 2 43255 86.3952 317.3652 0002151 84.6966 275.4476 14.34214574420959 IRIDIUM 142 1 43256U 18030H 26103.85327191 .00000142 00000+0 43491-4 0 9991 2 43256 86.3947 317.2699 0002404 87.1313 273.0158 14.34222328420912 IRIDIUM 150 1 43257U 18030J 26103.82156760 .00000067 00000+0 17026-4 0 9992 2 43257 86.3952 317.3973 0002204 88.8902 271.2546 14.34216916420934 IRIDIUM 143 1 43258U 18030K 26103.87230769 .00000169 00000+0 53173-4 0 9996 2 43258 86.3954 317.4661 0002302 87.4669 272.6791 14.34218737420879 IRIDIUM 161 1 43478U 18047C 26103.76064384 .00000142 00000+0 36261-4 0 9994 2 43478 86.4447 115.4176 0002051 86.5910 273.5525 14.43280607415849 IRIDIUM 152 1 43479U 18047D 26103.77525711 .00000019 00000+0 -38545-6 0 9995 2 43479 86.3925 115.2719 0002038 92.2647 267.8782 14.34217502413255 IRIDIUM 147 1 43480U 18047E 26103.78159980 .00000050 00000+0 10906-4 0 9992 2 43480 86.3923 115.2735 0002367 90.1512 269.9955 14.34217884413254 IRIDIUM 110 1 43481U 18047F 26103.78794152 .00000017 00000+0 -86540-6 0 9992 2 43481 86.3928 115.3608 0001799 89.2530 270.8872 14.34217591413240 IRIDIUM 162 1 43482U 18047G 26103.75433984 .00000076 00000+0 16579-4 0 9990 2 43482 86.4445 115.3121 0002299 93.9547 266.1916 14.43278687415839 IRIDIUM 160 1 43569U 18061A 26103.66401015 .00000060 00000+0 14241-4 0 9999 2 43569 86.3922 83.7760 0002169 85.3279 274.8164 14.34217663404122 IRIDIUM 166 1 43570U 18061B 26103.68938019 .00000117 00000+0 34567-4 0 9998 2 43570 86.3920 83.7166 0002404 87.9813 272.1658 14.34213410404154 IRIDIUM 158 1 43571U 18061C 26103.65766645 .00000073 00000+0 18987-4 0 9999 2 43571 86.3920 83.7399 0002186 92.1129 268.0318 14.34218128404112 IRIDIUM 165 1 43572U 18061D 26103.68303515 .00000122 00000+0 36665-4 0 9994 2 43572 86.3921 83.7743 0002407 87.4964 272.6508 14.34218727404147 IRIDIUM 155 1 43573U 18061E 26103.85428830 .00000044 00000+0 86956-5 0 9994 2 43573 86.3919 83.5749 0002320 91.4877 268.6585 14.34217601404130 IRIDIUM 154 1 43574U 18061F 26103.69572396 -.00000100 00000+0 -42663-4 0 9995 2 43574 86.3922 83.7720 0002317 85.4335 274.7126 14.34216582404163 IRIDIUM 163 1 43575U 18061G 26103.67668230 .00000004 00000+0 -57773-5 0 9998 2 43575 86.3922 83.6972 0002057 90.3826 269.7606 14.34213807404134 IRIDIUM 156 1 43576U 18061H 26103.65132412 .00000044 00000+0 87863-5 0 9991 2 43576 86.3919 83.7148 0002379 91.3862 268.7607 14.34217571404126 IRIDIUM 164 1 43577U 18061J 26103.91137151 -.00000007 00000+0 -96072-5 0 9999 2 43577 86.3923 83.6456 0002248 83.8156 276.3296 14.34217195404200 IRIDIUM 159 1 43578U 18061K 26103.46104483 .00000111 00000+0 32667-4 0 9995 2 43578 86.3915 83.7718 0002117 86.1736 273.9701 14.34216000404106 IRIDIUM 180 1 43922U 19002A 26103.25123787 .00000057 00000+0 13232-4 0 9995 2 43922 86.4018 20.7292 0002102 82.5762 277.5673 14.34217847379687 IRIDIUM 176 1 43923U 19002B 26103.72560697 .00000557 00000+0 84354-4 0 9991 2 43923 86.6138 20.4837 0002614 84.0147 276.1368 14.72253867389767 IRIDIUM 168 1 43924U 19002C 26103.52396933 .00000164 00000+0 51326-4 0 9997 2 43924 86.4021 20.6908 0002142 86.1496 273.9945 14.34218593379708 IRIDIUM 173 1 43925U 19002D 26103.72058991 .00000181 00000+0 57608-4 0 9997 2 43925 86.4017 20.5002 0002131 87.9108 272.2332 14.34218403379718 IRIDIUM 169 1 43926U 19002E 26103.56538236 .00000216 00000+0 64136-4 0 9998 2 43926 86.4226 52.1970 0002483 101.4305 258.7173 14.38607755380931 IRIDIUM 172 1 43927U 19002F 26103.71424659 .00000034 00000+0 50202-5 0 9997 2 43927 86.4017 20.5105 0002104 82.4400 277.7035 14.34217948379723 IRIDIUM 175 1 43928U 19002G 26103.88163881 .00000233 00000+0 62733-4 0 9995 2 43928 86.4504 317.4209 0005368 81.2430 278.9378 14.43588467389702 IRIDIUM 171 1 43929U 19002H 26103.48591470 .00000163 00000+0 51004-4 0 9992 2 43929 86.4026 20.9048 0002357 85.6569 274.4896 14.34218428379684 IRIDIUM 170 1 43930U 19002J 26103.73178093 -.00001311 00000+0 -21196-3 0 9990 2 43930 86.6134 20.4840 0002211 78.1773 281.9692 14.72248988389770 IRIDIUM 167 1 43931U 19002K 26103.75864610 .00000079 00000+0 21239-4 0 9997 2 43931 86.4017 20.5139 0002544 88.2788 271.8700 14.34217794379729 IRIDIUM 181 1 56726U 23068S 26103.90743709 .00000155 00000+0 39954-4 0 9990 2 56726 86.4458 83.6607 0002323 79.8844 280.2619 14.43310982153162 IRIDIUM 177 1 56727U 23068T 26103.96591996 .00000697 00000+0 88221-4 0 9998 2 56727 86.2011 359.2899 0002153 88.8872 271.2596 14.80216239156868 IRIDIUM 174 1 56728U 23068U 26103.71943608 .00000583 00000+0 88577-4 0 9991 2 56728 86.6146 20.6300 0002147 84.8476 275.2987 14.72259534156535 IRIDIUM 178 1 56729U 23068V 26103.27895755 .00000826 00000+0 10528-3 0 9992 2 56729 86.6543 52.4730 0002737 82.6044 277.5489 14.80232235156764 IRIDIUM 179 1 56730U 23068W 26103.88199196 .00000769 00000+0 97802-4 0 9994 2 56730 86.6764 61.0126 0002956 89.3544 270.8016 14.80232846156858